AEZ2350 LIEE-LIML

Flight info

Callsign AEZ2350
Flight time 1h 6m
Altitude 30000
Route KOVAS DCT DEXUL DCT GIGGI DCT UPDUT DCT CORSI DCT OKROK DCT AKUTI DCT TORTU DCT ERTEV DCT OLETI DCT ITCAP
Aircraft B738/M-SDE2E3FGHIRWXY/LB1

Departure

Time 2026-05-01 08:06
Airport Cagliari Elmas Airport (LIEE)

Arrival

Time 2026-05-01 09:13
Airport Milano Linate Airport (LIML)
Time Latitude Longitude Altitude Speed Heading
2026-05-01 07:32 39.25294 9.06017 19 ft 0 kts 322°
2026-05-01 07:43 39.25294 9.06018 19 ft 1 kts 322°
2026-05-01 07:43 39.25283 9.06029 19 ft 2 kts 319°
2026-05-01 07:43 39.25260 9.06054 19 ft 2 kts 320°
2026-05-01 07:44 39.25236 9.06079 18 ft 2 kts 320°
2026-05-01 07:44 39.25214 9.06103 19 ft 2 kts 320°
2026-05-01 07:45 39.25203 9.06114 19 ft 0 kts 320°
2026-05-01 07:45 39.25200 9.06117 19 ft 0 kts 322°
2026-05-01 07:48 39.25203 9.06115 19 ft 3 kts 321°
2026-05-01 07:48 39.25223 9.06090 19 ft 0 kts 304°
2026-05-01 07:49 39.25227 9.06077 18 ft 0 kts 275°
2026-05-01 07:49 39.25227 9.06076 18 ft 0 kts 272°
2026-05-01 07:49 39.25227 9.06075 18 ft 0 kts 270°
2026-05-01 07:50 39.25225 9.06066 18 ft 0 kts 235°
2026-05-01 07:51 39.25218 9.06053 18 ft 7 kts 235°
2026-05-01 07:51 39.25169 9.05965 17 ft 10 kts 232°
2026-05-01 07:52 39.25071 9.06000 16 ft 11 kts 131°
2026-05-01 07:52 39.24971 9.06134 16 ft 27 kts 137°
2026-05-01 07:52 39.24842 9.06262 15 ft 21 kts 145°
2026-05-01 07:53 39.24600 9.06459 12 ft 20 kts 148°
2026-05-01 07:53 39.24493 9.06545 11 ft 10 kts 147°
2026-05-01 07:53 39.24477 9.06558 11 ft 0 kts 148°
2026-05-01 07:53 39.24451 9.06577 11 ft 6 kts 153°
2026-05-01 07:54 39.24448 9.06579 11 ft 0 kts 154°
2026-05-01 07:55 39.24426 9.06589 11 ft 0 kts 165°
2026-05-01 07:59 39.24408 9.06594 10 ft 7 kts 176°
2026-05-01 08:00 39.24373 9.06587 10 ft 0 kts 194°
2026-05-01 08:01 39.24362 9.06584 10 ft 6 kts 194°
2026-05-01 08:01 39.24328 9.06572 10 ft 0 kts 197°
2026-05-01 08:03 39.24317 9.06567 10 ft 5 kts 197°
2026-05-01 08:04 39.24260 9.06457 9 ft 8 kts 316°
2026-05-01 08:04 39.24263 9.06453 9 ft 0 kts 316°
2026-05-01 08:05 39.24320 9.06382 10 ft 42 kts 317°
2026-05-01 08:05 39.24763 9.05873 13 ft 126 kts 319°
2026-05-01 08:05 39.25571 9.04949 273 ft 171 kts 319°
2026-05-01 08:06 39.27819 9.03217 1627 ft 215 kts 351°
2026-05-01 08:06 39.30883 9.03217 3508 ft 219 kts
2026-05-01 08:07 39.33829 9.03648 5501 ft 216 kts
2026-05-01 08:07 39.36876 9.03922 5971 ft 218 kts
2026-05-01 08:08 39.38382 9.04044 5974 ft 216 kts
2026-05-01 08:08 39.41501 9.04304 7254 ft 223 kts
2026-05-01 08:09 39.44567 9.04561 9062 ft 224 kts
2026-05-01 08:09 39.46114 9.04697 9863 ft 227 kts
2026-05-01 08:09 39.47728 9.04882 10469 ft 239 kts
2026-05-01 08:10 39.51253 9.05345 11554 ft 269 kts
2026-05-01 08:10 39.55159 9.05848 12611 ft 298 kts
2026-05-01 08:11 39.59495 9.06401 13627 ft 327 kts
2026-05-01 08:11 39.64235 9.07029 14539 ft 358 kts
2026-05-01 08:12 39.69278 9.08420 15801 ft 377 kts 13°
2026-05-01 08:12 39.71786 9.09302 16568 ft 381 kts 13°
2026-05-01 08:12 39.76956 9.11147 18102 ft 388 kts 13°
2026-05-01 08:13 39.78775 9.11783 18657 ft 390 kts 12°
2026-05-01 08:13 39.81889 9.12854 19494 ft 394 kts 12°
2026-05-01 08:14 39.84595 9.13694 20161 ft 397 kts
2026-05-01 08:14 39.87328 9.14258 20853 ft 399 kts
2026-05-01 08:14 39.90091 9.14567 21515 ft 401 kts
2026-05-01 08:14 39.92886 9.14748 22132 ft 405 kts 360°
2026-05-01 08:15 39.95698 9.14875 22761 ft 408 kts 359°
2026-05-01 08:15 40.01411 9.15101 23982 ft 414 kts 359°
2026-05-01 08:15 40.04322 9.15225 24526 ft 418 kts 359°
2026-05-01 08:16 40.07230 9.15356 25076 ft 422 kts 358°
2026-05-01 08:16 40.10185 9.15498 25603 ft 426 kts 358°
2026-05-01 08:16 40.13186 9.15647 26134 ft 430 kts 358°
2026-05-01 08:16 40.16186 9.15799 26679 ft 433 kts 358°
2026-05-01 08:17 40.19208 9.15954 27177 ft 437 kts 358°
2026-05-01 08:17 40.22291 9.16045 27676 ft 439 kts 356°
2026-05-01 08:17 40.25326 9.15930 28180 ft 438 kts 351°
2026-05-01 08:17 40.28345 9.15446 29044 ft 429 kts 346°
2026-05-01 08:18 40.31298 9.14718 29675 ft 426 kts 343°
2026-05-01 08:18 40.37107 9.12941 30192 ft 427 kts 342°
2026-05-01 08:19 40.42852 9.11072 30194 ft 423 kts 342°
2026-05-01 08:19 40.48583 9.09217 30194 ft 424 kts 342°
2026-05-01 08:20 40.54327 9.07383 30191 ft 423 kts 342°
2026-05-01 08:20 40.60052 9.05569 30194 ft 423 kts 342°
2026-05-01 08:21 40.65799 9.03749 30210 ft 423 kts 343°
2026-05-01 08:21 40.71515 9.01941 30203 ft 421 kts 343°
2026-05-01 08:22 40.77218 9.00132 30213 ft 422 kts 343°
2026-05-01 08:22 40.82918 8.98322 30210 ft 423 kts 343°
2026-05-01 08:23 40.88657 8.96495 30213 ft 422 kts 343°
2026-05-01 08:23 40.94354 8.94679 30221 ft 421 kts 343°
2026-05-01 08:24 41.00069 8.92853 30218 ft 422 kts 343°
2026-05-01 08:24 41.05791 8.91022 30217 ft 422 kts 343°
2026-05-01 08:25 41.11519 8.89187 30224 ft 423 kts 344°
2026-05-01 08:25 41.17235 8.87353 30215 ft 422 kts 344°
2026-05-01 08:26 41.22946 8.85517 30210 ft 422 kts 344°
2026-05-01 08:26 41.28642 8.83523 30211 ft 422 kts 341°
2026-05-01 08:27 41.34336 8.81551 30217 ft 423 kts 348°
2026-05-01 08:27 41.40244 8.81193 30216 ft 428 kts 358°
2026-05-01 08:28 41.46183 8.81588 30217 ft 428 kts
2026-05-01 08:28 41.52137 8.82053 30214 ft 427 kts
2026-05-01 08:29 41.58069 8.82463 30218 ft 428 kts 360°
2026-05-01 08:29 41.64027 8.82822 30223 ft 428 kts 360°
2026-05-01 08:30 41.69957 8.83155 30231 ft 427 kts 359°
2026-05-01 08:30 41.75897 8.83476 30232 ft 426 kts 360°
2026-05-01 08:31 41.81836 8.83793 30236 ft 426 kts 360°
2026-05-01 08:31 41.87748 8.84106 30235 ft 427 kts
2026-05-01 08:32 41.93724 8.84425 30242 ft 426 kts
2026-05-01 08:32 41.99652 8.84741 30238 ft 425 kts
2026-05-01 08:33 42.05568 8.85058 30243 ft 428 kts
2026-05-01 08:33 42.11532 8.85378 30252 ft 427 kts
2026-05-01 08:34 42.17440 8.85695 30250 ft 426 kts
2026-05-01 08:34 42.23367 8.86014 30248 ft 425 kts
2026-05-01 08:35 42.29292 8.86334 30250 ft 425 kts
2026-05-01 08:35 42.35203 8.86653 30260 ft 425 kts
2026-05-01 08:36 42.41151 8.86976 30263 ft 424 kts
2026-05-01 08:36 42.47051 8.87297 30265 ft 424 kts
2026-05-01 08:37 42.52919 8.87615 30268 ft 419 kts
2026-05-01 08:37 42.58753 8.87931 30265 ft 421 kts
2026-05-01 08:38 42.64600 8.88249 30262 ft 420 kts
2026-05-01 08:38 42.70446 8.88568 30260 ft 419 kts
2026-05-01 08:39 42.76247 8.88886 30267 ft 419 kts
2026-05-01 08:39 42.82088 8.89220 30261 ft 419 kts
2026-05-01 08:40 42.90845 8.90183 30268 ft 419 kts
2026-05-01 08:40 42.96659 8.90917 30270 ft 420 kts
2026-05-01 08:41 43.02535 8.91636 30275 ft 427 kts
2026-05-01 08:41 43.08428 8.92339 30277 ft 422 kts
2026-05-01 08:42 43.14298 8.93032 30279 ft 425 kts
2026-05-01 08:42 43.20154 8.93721 30280 ft 422 kts
2026-05-01 08:43 43.25984 8.94399 30280 ft 422 kts
2026-05-01 08:43 43.31845 8.95056 30284 ft 423 kts
2026-05-01 08:44 43.37786 8.95716 30435 ft 430 kts
2026-05-01 08:44 43.40777 8.95998 30923 ft 431 kts
2026-05-01 08:44 43.43731 8.96099 31583 ft 427 kts
2026-05-01 08:45 43.46727 8.96091 32178 ft 425 kts 360°
2026-05-01 08:45 43.49641 8.96040 32749 ft 423 kts 359°
2026-05-01 08:45 43.52620 8.95980 33241 ft 423 kts 360°
2026-05-01 08:45 43.55523 8.95931 33725 ft 421 kts
2026-05-01 08:46 43.58455 8.95894 34192 ft 420 kts
2026-05-01 08:46 43.61405 8.95901 34297 ft 425 kts
2026-05-01 08:46 43.67237 8.96702 34298 ft 420 kts 10°
2026-05-01 08:47 43.72997 8.98303 34299 ft 421 kts 12°
2026-05-01 08:47 43.78682 9.00055 34297 ft 419 kts 13°
2026-05-01 08:48 43.84454 9.01398 34296 ft 420 kts
2026-05-01 08:48 43.90206 9.02116 34178 ft 409 kts
2026-05-01 08:49 43.93023 9.02412 33911 ft 411 kts
2026-05-01 08:49 43.95881 9.02713 33644 ft 409 kts
2026-05-01 08:49 43.98701 9.03017 33384 ft 410 kts
2026-05-01 08:49 44.01556 9.03336 33119 ft 411 kts
2026-05-01 08:50 44.04406 9.03662 32855 ft 411 kts
2026-05-01 08:50 44.07251 9.03994 32597 ft 412 kts
2026-05-01 08:50 44.10146 9.04335 32335 ft 413 kts
2026-05-01 08:50 44.12919 9.04665 32081 ft 414 kts
2026-05-01 08:51 44.15747 9.05002 31829 ft 414 kts
2026-05-01 08:51 44.18552 9.05337 31573 ft 418 kts
2026-05-01 08:51 44.21505 9.05693 31308 ft 427 kts
2026-05-01 08:51 44.24478 9.06051 31045 ft 428 kts
2026-05-01 08:52 44.27414 9.06404 30786 ft 419 kts
2026-05-01 08:52 44.30312 9.06751 30523 ft 415 kts
2026-05-01 08:52 44.33221 9.07050 30267 ft 425 kts
2026-05-01 08:52 44.36209 9.07024 30002 ft 434 kts 358°
2026-05-01 08:53 44.39204 9.06308 29745 ft 437 kts 348°
2026-05-01 08:53 44.42065 9.04882 29482 ft 441 kts 339°
2026-05-01 08:53 44.44788 9.02898 29222 ft 445 kts 333°
2026-05-01 08:53 44.47376 9.00491 28961 ft 451 kts 327°
2026-05-01 08:54 44.49783 8.97581 28697 ft 455 kts 320°
2026-05-01 08:54 44.52022 8.94409 28430 ft 459 kts 317°
2026-05-01 08:54 44.54182 8.91115 28171 ft 462 kts 316°
2026-05-01 08:54 44.56325 8.87746 27908 ft 462 kts 316°
2026-05-01 08:55 44.58441 8.84391 27648 ft 462 kts 316°
2026-05-01 08:55 44.60576 8.81021 27383 ft 464 kts 316°
2026-05-01 08:55 44.62747 8.77618 27120 ft 465 kts 316°
2026-05-01 08:55 44.64901 8.74265 26858 ft 465 kts 316°
2026-05-01 08:56 44.67075 8.70899 26597 ft 464 kts 317°
2026-05-01 08:56 44.69270 8.67510 26333 ft 463 kts 316°
2026-05-01 08:56 44.71435 8.64177 26073 ft 463 kts 316°
2026-05-01 08:56 44.73589 8.60864 25811 ft 462 kts 316°
2026-05-01 08:57 44.75774 8.57504 25551 ft 460 kts 317°
2026-05-01 08:57 44.77938 8.54175 25289 ft 460 kts 317°
2026-05-01 08:57 44.80089 8.50915 24841 ft 456 kts 319°
2026-05-01 08:57 44.82468 8.48009 24580 ft 447 kts 329°
2026-05-01 08:58 44.85133 8.45752 24186 ft 444 kts 338°
2026-05-01 08:58 44.87954 8.44105 23545 ft 436 kts 346°
2026-05-01 08:58 44.90836 8.42948 22844 ft 429 kts 351°
2026-05-01 08:58 44.93741 8.42184 22149 ft 422 kts 357°
2026-05-01 08:59 44.96645 8.42024 21435 ft 414 kts
2026-05-01 08:59 44.99491 8.42461 20729 ft 408 kts 13°
2026-05-01 08:59 45.02237 8.43337 20013 ft 403 kts 18°
2026-05-01 08:59 45.04866 8.44537 19311 ft 398 kts 24°
2026-05-01 09:00 45.07343 8.46215 18634 ft 393 kts 31°
2026-05-01 09:00 45.09613 8.48338 17907 ft 389 kts 38°
2026-05-01 09:00 45.11693 8.50769 17220 ft 385 kts 43°
2026-05-01 09:00 45.13553 8.53383 16535 ft 382 kts 48°
2026-05-01 09:01 45.15155 8.56317 15851 ft 379 kts 56°
2026-05-01 09:01 45.16481 8.59514 15179 ft 376 kts 62°
2026-05-01 09:01 45.17574 8.62846 14506 ft 374 kts 66°
2026-05-01 09:01 45.18431 8.66335 13830 ft 372 kts 73°
2026-05-01 09:02 45.18954 8.69901 13195 ft 370 kts 80°
2026-05-01 09:02 45.19182 8.73504 12544 ft 369 kts 85°
2026-05-01 09:02 45.19139 8.77139 11909 ft 367 kts 93°
2026-05-01 09:02 45.18778 8.80674 11521 ft 358 kts 97°
2026-05-01 09:03 45.18364 8.84094 11274 ft 345 kts 98°
2026-05-01 09:03 45.17745 8.87311 11164 ft 332 kts 107°
2026-05-01 09:03 45.16830 8.90245 11006 ft 321 kts 115°
2026-05-01 09:03 45.15787 8.93000 10859 ft 314 kts 114°
2026-05-01 09:04 45.14841 8.95758 10697 ft 306 kts 111°
2026-05-01 09:04 45.13989 8.98449 10551 ft 294 kts 111°
2026-05-01 09:04 45.13175 9.01068 10311 ft 287 kts 110°
2026-05-01 09:04 45.12369 9.03676 9678 ft 296 kts 111°
2026-05-01 09:05 45.11535 9.06379 9040 ft 303 kts 111°
2026-05-01 09:05 45.10811 9.09201 8395 ft 304 kts 98°
2026-05-01 09:05 45.10867 9.12093 7743 ft 293 kts 72°
2026-05-01 09:05 45.11617 9.14696 7108 ft 284 kts 58°
2026-05-01 09:06 45.12727 9.16959 6525 ft 276 kts 48°
2026-05-01 09:06 45.14027 9.18889 6091 ft 264 kts 42°
2026-05-01 09:06 45.15332 9.20555 5943 ft 244 kts 40°
2026-05-01 09:06 45.16589 9.22092 5957 ft 235 kts 40°
2026-05-01 09:07 45.17827 9.23609 5905 ft 236 kts 40°
2026-05-01 09:07 45.19059 9.25138 5733 ft 227 kts 40°
2026-05-01 09:07 45.20212 9.26577 5562 ft 214 kts 41°
2026-05-01 09:07 45.21315 9.27953 5399 ft 208 kts 41°
2026-05-01 09:08 45.22408 9.29284 5243 ft 207 kts 35°
2026-05-01 09:08 45.23735 9.30028 5037 ft 210 kts
2026-05-01 09:08 45.25180 9.29872 4939 ft 203 kts 352°
2026-05-01 09:08 45.26529 9.29602 4816 ft 187 kts 356°
2026-05-01 09:09 45.27817 9.29467 4498 ft 184 kts 359°
2026-05-01 09:09 45.29078 9.29355 4177 ft 181 kts 358°
2026-05-01 09:09 45.30333 9.29221 3838 ft 181 kts 358°
2026-05-01 09:09 45.31609 9.29082 3367 ft 188 kts 359°
2026-05-01 09:10 45.32937 9.28942 2876 ft 194 kts 359°
2026-05-01 09:10 45.34279 9.28802 2402 ft 195 kts 359°
2026-05-01 09:10 45.35605 9.28655 2220 ft 179 kts 358°
2026-05-01 09:10 45.36783 9.28519 2118 ft 164 kts 357°
2026-05-01 09:11 45.37899 9.28338 1791 ft 154 kts 356°
2026-05-01 09:11 45.38938 9.28200 1476 ft 145 kts 358°
2026-05-01 09:11 45.39946 9.28128 1111 ft 144 kts
2026-05-01 09:11 45.40945 9.28055 782 ft 138 kts 359°
2026-05-01 09:12 45.41864 9.27968 599 ft 139 kts 359°
2026-05-01 09:12 45.42844 9.27867 477 ft 137 kts 359°
2026-05-01 09:12 45.43752 9.27785 346 ft 120 kts 359°
2026-05-01 09:12 45.44395 9.27725 353 ft 64 kts 355°
2026-05-01 09:13 45.44736 9.27686 356 ft 36 kts 354°
2026-05-01 09:13 45.44922 9.27668 357 ft 25 kts 356°
2026-05-01 09:13 45.45183 9.27645 358 ft 44 kts 355°
2026-05-01 09:13 45.45366 9.27698 359 ft 20 kts 27°
2026-05-01 09:14 45.45475 9.27805 360 ft 16 kts 28°
2026-05-01 09:14 45.45590 9.27817 361 ft 17 kts
2026-05-01 09:14 45.45736 9.27818 362 ft 24 kts
2026-05-01 09:14 45.45885 9.27824 363 ft 10 kts 23°
2026-05-01 09:15 45.45912 9.27892 363 ft 9 kts 48°
2026-05-01 09:15 45.45970 9.27904 364 ft 0 kts 360°
2026-05-01 09:15 45.45979 9.27904 364 ft 0 kts